Previsão horária em Abaturovo

Hoje, 17 Abril, Sábado

Tempo Temperatura Precipitação Vento Pressão Humidade
00:00 +7°C° 0 mm 5 m/s 755 mmHg 80%
01:00 +7°C° 0 mm 4 m/s 756 mmHg 81%
02:00 +6°C° 0 mm 4 m/s 756 mmHg 82%
03:00 +6°C° 0 mm 4 m/s 756 mmHg 83%
04:00 +5°C° 0 mm 4 m/s 756 mmHg 84%
05:00 +5°C° 0 mm 4 m/s 756 mmHg 85%
06:00 +6°C° 0 mm 4 m/s 756 mmHg 81%
07:00 +7°C° 0 mm 4 m/s 756 mmHg 76%
08:00 +7°C° 0 mm 5 m/s 756 mmHg 72%
09:00 +9°C° 0 mm 5 m/s 756 mmHg 67%
10:00 +12°C° 0 mm 5 m/s 756 mmHg 62%
11:00 +13°C° 0 mm 5 m/s 756 mmHg 57%
12:00 +14°C° 0 mm 5 m/s 756 mmHg 54%
13:00 +14°C° 0 mm 6 m/s 756 mmHg 52%
14:00 +15°C° 0 mm 6 m/s 756 mmHg 50%
15:00 +14°C° 0 mm 5 m/s 756 mmHg 50%
16:00 +14°C° 0 mm 5 m/s 755 mmHg 50%
17:00 +13°C° 0 mm 5 m/s 755 mmHg 50%
18:00 +12°C° 0 mm 5 m/s 755 mmHg 51%
19:00 +9°C° 0 mm 5 m/s 756 mmHg 52%
20:00 +8°C° 0 mm 5 m/s 756 mmHg 53%
21:00 +8°C° 0 mm 5 m/s 756 mmHg 56%
22:00 +7°C° 0 mm 5 m/s 756 mmHg 59%
23:00 +6°C° 0 mm 5 m/s 755 mmHg 62%

Amanhã, 18 Abril, Domingo

Tempo Temperatura Precipitação Vento Pressão Humidade
00:00 +6°C° 0 mm 5 m/s 756 mmHg 65%
01:00 +5°C° 0 mm 4 m/s 756 mmHg 68%
02:00 +4°C° 0 mm 4 m/s 756 mmHg 71%
03:00 +3°C° 0 mm 5 m/s 756 mmHg 72%
04:00 +3°C° 0 mm 5 m/s 755 mmHg 73%
05:00 +3°C° 0 mm 5 m/s 755 mmHg 75%
06:00 +5°C° 0 mm 5 m/s 755 mmHg 69%
07:00 +6°C° 0 mm 5 m/s 756 mmHg 64%
08:00 +7°C° 0 mm 6 m/s 756 mmHg 58%
09:00 +8°C° 0 mm 6 m/s 756 mmHg 53%
10:00 +10°C° 0 mm 5 m/s 756 mmHg 48%
11:00 +12°C° 0 mm 5 m/s 756 mmHg 42%
12:00 +11°C° 0 mm 6 m/s 756 mmHg 41%
13:00 +13°C° 0 mm 6 m/s 756 mmHg 40%
14:00 +13°C° 0 mm 6 m/s 756 mmHg 38%
15:00 +13°C° 0 mm 5 m/s 756 mmHg 41%
16:00 +12°C° 0 mm 5 m/s 756 mmHg 43%
17:00 +12°C° 0 mm 4 m/s 756 mmHg 45%
18:00 +11°C° 0 mm 4 m/s 756 mmHg 51%
19:00 +9°C° 0 mm 3 m/s 756 mmHg 57%
20:00 +8°C° 0 mm 3 m/s 756 mmHg 63%
21:00 +7°C° 0 mm 3 m/s 757 mmHg 67%
22:00 +7°C° 0 mm 3 m/s 757 mmHg 70%
23:00 +5°C° 0 mm 3 m/s 757 mmHg 74%

Depois de amanhã, 19 Abril, Segunda-feira

Tempo Temperatura Precipitação Vento Pressão Humidade
00:00 +5°C° 0 mm 3 m/s 757 mmHg 77%
01:00 +5°C° 0 mm 4 m/s 757 mmHg 80%
02:00 +5°C° 0 mm 4 m/s 757 mmHg 82%
03:00 +4°C° 0 mm 4 m/s 757 mmHg 84%
04:00 +4°C° 0 mm 4 m/s 757 mmHg 85%
05:00 +3°C° 0 mm 4 m/s 758 mmHg 86%
06:00 +4°C° 0 mm 4 m/s 758 mmHg 81%
07:00 +5°C° 0 mm 4 m/s 758 mmHg 76%
08:00 +6°C° 0 mm 4 m/s 758 mmHg 71%
09:00 +6°C° 0 mm 4 m/s 758 mmHg 69%
10:00 +6°C° 0 mm 5 m/s 758 mmHg 68%
11:00 +6°C° 0 mm 5 m/s 758 mmHg 67%
12:00 +7°C° 0 mm 5 m/s 758 mmHg 64%
13:00 +7°C° 0 mm 5 m/s 758 mmHg 62%
14:00 +8°C° 0 mm 5 m/s 758 mmHg 60%
15:00 +8°C° 0 mm 4 m/s 757 mmHg 59%
16:00 +8°C° 0 mm 4 m/s 757 mmHg 58%
17:00 +8°C° 0 mm 4 m/s 757 mmHg 57%
18:00 +7°C° 0 mm 4 m/s 757 mmHg 59%
19:00 +7°C° 0 mm 4 m/s 757 mmHg 62%
20:00 +7°C° 0 mm 3 m/s 757 mmHg 64%
21:00 +5°C° 0 mm 4 m/s 757 mmHg 62%
22:00 +5°C° 0 mm 4 m/s 757 mmHg 60%
23:00 +4°C° 0 mm 4 m/s 757 mmHg 59%

20 Abril, Terça-feira

Tempo Temperatura Precipitação Vento Pressão Humidade
00:00 +4°C° 0 mm 4 m/s 757 mmHg 59%
01:00 +3°C° 0 mm 4 m/s 756 mmHg 60%
02:00 +1°C° 0 mm 4 m/s 756 mmHg 60%
03:00 +1°C° 0 mm 4 m/s 756 mmHg 61%
04:00 +1°C° 0 mm 4 m/s 756 mmHg 62%
05:00 0°C° 0 mm 4 m/s 756 mmHg 63%
06:00 +1°C° 0 mm 4 m/s 755 mmHg 62%
07:00 +2°C° 0 mm 5 m/s 755 mmHg 60%
08:00 +3°C° 0 mm 5 m/s 754 mmHg 59%
09:00 +5°C° 0 mm 5 m/s 754 mmHg 60%
10:00 +6°C° 0 mm 5 m/s 754 mmHg 60%
11:00 +6°C° 0 mm 5 m/s 753 mmHg 61%
12:00 +6°C° 0.1 mm 5 m/s 753 mmHg 65%
13:00 +6°C° 0.1 mm 5 m/s 752 mmHg 68%
14:00 +6°C° 0.1 mm 5 m/s 751 mmHg 72%
15:00 +5°C° 0.3 mm 6 m/s 750 mmHg 70%
16:00 +7°C° 0.3 mm 6 m/s 749 mmHg 69%
17:00 +7°C° 0.3 mm 6 m/s 748 mmHg 67%
18:00 +6°C° 0.4 mm 7 m/s 747 mmHg 68%
19:00 +6°C° 0.4 mm 7 m/s 747 mmHg 69%
20:00 +6°C° 0.4 mm 8 m/s 746 mmHg 70%
21:00 +5°C° 1 mm 8 m/s 745 mmHg 75%
22:00 +5°C° 1 mm 8 m/s 744 mmHg 80%
23:00 +4°C° 1 mm 8 m/s 742 mmHg 85%

21 Abril, Quarta-feira

Tempo Temperatura Precipitação Vento Pressão Humidade
00:00 +4°C° 1.3 mm 8 m/s 742 mmHg 86%
01:00 +4°C° 1.3 mm 7 m/s 741 mmHg 88%
02:00 +4°C° 1.3 mm 7 m/s 740 mmHg 90%
03:00 +4°C° 1 mm 7 m/s 740 mmHg 90%
04:00 +4°C° 1 mm 6 m/s 739 mmHg 90%
05:00 +4°C° 1 mm 6 m/s 739 mmHg 90%
06:00 +5°C° 0 mm 6 m/s 738 mmHg 90%
07:00 +5°C° 0 mm 6 m/s 738 mmHg 90%
08:00 +5°C° 0 mm 6 m/s 738 mmHg 89%
09:00 +7°C° 0.2 mm 6 m/s 737 mmHg 89%
10:00 +7°C° 0.2 mm 6 m/s 737 mmHg 88%
11:00 +7°C° 0.2 mm 6 m/s 737 mmHg 88%
12:00 +5°C° 0.2 mm 6 m/s 737 mmHg 86%
13:00 +4°C° 0.2 mm 7 m/s 738 mmHg 84%
14:00 +3°C° 0.2 mm 7 m/s 738 mmHg 82%
15:00 +3°C° 0 mm 7 m/s 739 mmHg 82%
16:00 +4°C° 0 mm 7 m/s 739 mmHg 82%
17:00 +4°C° 0 mm 8 m/s 739 mmHg 82%
18:00 +4°C° 0.1 mm 8 m/s 740 mmHg 83%
19:00 +4°C° 0.1 mm 8 m/s 741 mmHg 83%
20:00 +2°C° 0.1 mm 8 m/s 742 mmHg 84%
21:00 +3°C° 0 mm 7 m/s 742 mmHg 83%
22:00 +3°C° 0 mm 7 m/s 743 mmHg 83%
23:00 +3°C° 0 mm 6 m/s 743 mmHg 82%

22 Abril, Quinta-feira

Tempo Temperatura Precipitação Vento Pressão Humidade
00:00 +3°C° 0.1 mm 6 m/s 744 mmHg 85%
01:00 +2°C° 0.1 mm 6 m/s 744 mmHg 88%
02:00 +2°C° 0.1 mm 5 m/s 745 mmHg 92%
03:00 +2°C° 0.2 mm 5 m/s 745 mmHg 93%
04:00 +2°C° 0.2 mm 5 m/s 746 mmHg 94%
05:00 +2°C° 0.2 mm 5 m/s 746 mmHg 95%
06:00 +3°C° 0.1 mm 5 m/s 747 mmHg 89%
07:00 +5°C° 0.1 mm 5 m/s 747 mmHg 84%
08:00 +6°C° 0.1 mm 5 m/s 748 mmHg 78%
09:00 +7°C° 0.1 mm 5 m/s 748 mmHg 73%
10:00 +8°C° 0.1 mm 5 m/s 749 mmHg 68%
11:00 +9°C° 0.1 mm 5 m/s 749 mmHg 62%
12:00 +10°C° 0.2 mm 5 m/s 749 mmHg 61%
13:00 +10°C° 0.2 mm 5 m/s 750 mmHg 59%
14:00 +10°C° 0.2 mm 5 m/s 750 mmHg 58%
15:00 +11°C° 0.1 mm 4 m/s 750 mmHg 59%
16:00 +11°C° 0.1 mm 4 m/s 751 mmHg 60%
17:00 +11°C° 0.1 mm 3 m/s 751 mmHg 61%
18:00 +10°C° 0 mm 3 m/s 752 mmHg 67%
19:00 +8°C° 0 mm 2 m/s 752 mmHg 73%
20:00 +7°C° 0 mm 2 m/s 753 mmHg 80%
21:00 +6°C° 0 mm 2 m/s 753 mmHg 81%
22:00 +6°C° 0 mm 2 m/s 754 mmHg 83%
23:00 +5°C° 0 mm 2 m/s 754 mmHg 85%
Mostrar mais

Necessitamos do seu Consentimento

A Meteoprog e os seus Fornecedores de Serviços podem armazenar e aceder a dados pessoais como cookies, identificadores do dispositivo ou outras tecnologias semelhantes existentes no seu dispositivo e processar estes dados para personalizar conteúdos e anúncios, assim como funcionalidades nas redes sociais e análise de tráfego.

  • Armazenar e/ou aceder a informações no seu dispositivo

    Os cookies, identificadores do dispositivo ou outras informações podem ser armazenados ou acedidos no seu dispositivo, para os fins acima indicados.

  • Anúncios e conteúdos personalizados, medição de anúncios e conteúdos, dados sobre o público-alvo e desenvolvimento de produtos

    Os anúncios e os conteúdos podem ser personalizados com base num perfil. Podem ser adicionados dados adicionais para uma maior personalização dos anúncios e dos conteúdos. A eficácia dos anúncios e dos conteúdos pode ser medida. Podem ser obtidas informações sobre o público que visualizou os anúncios e os conteúdos. Estes dados podem ser usados para desenvolver ou melhorar sistemas, softwares ou a experiência do utilizador.

Ao clicar em "Eu concordo”, permitirá o uso de cookies, identificadores do dispositivo e web beacons mencionados ou outras tecnologias semelhantes. As configurações do navegador do seu dispositivo podem ser alteradas.

Para certos fins, podem ser invocados interesses legítimos ao invés de consentimento. Pode ler mais informação sobre este assunto na nossa Política de Privacidade e Cookies.